STARLINK-1667, 46155

Orbit data source: Space-Track

STARLINK-1667, 46155 is a payload satellite owned by SpaceX/Seattle (US) in LEO that was launched on Tue, 18 Aug 2020 UTC via an FALCON 9 launch vehicle from the Air Force Eastern Test Range (AFETR). Payload-class satellites include a variety of spacecraft equipped with specific instruments for various scientific and technological missions. These include communications satellites like Starlink; space stations such as the ISS; scientific satellites like the Hubble; Earth observation satellites from companies like Planet Labs, Umbra, and HawkEye 360; GPS; miniature CubeSats for education and research; and military/defense satellites.

Loading next visibility...
Identifier
46155, 2020-057AQ
Orbit
LEO
Country
Flag of USUS
Related business
Manufacturer
SpaceX/Seattle
Mission
Partially operational Commercial Communications
Bus & Motor
STARLINK, Unknown motor
Mass
260 kg wet, ~248 kg dry
Launch date (UTC)
2020-08-18 (6 years ago)
Launch vehicle
FALCON 9
Launch site
Air Force Eastern Test Range (AFETR)
Object type
Payload
Rocket body
Debris
Shape & HBR
Box + 1 Pan, 10.1 m
Radar Cross Section
13.562 m², Large (>1 m²)

Expand to show TLE details & history
Last TLE update: 3 hours ago

TLE from 3 hours ago
0 STARLINK-1667
1 46155U 20057AQ  26123.25003471  .00095270  00000-0  57212-3 0  9994
2 46155  53.0168 314.6788 0003237 302.7221 196.7745 15.77013704  5925
Epoch: 2026-05-03T06:00Z
TLE epoch observation values (Epoch: 2026-05-03T06:00:02.998Z)
Latitude
31.36186°
Longitude
156.35363°
Altitude
342.897 km
Speed
7.706 km/s
True Right ascension
07h 10m 05s
True Declination
31° 11' 59"
Sunlit
Object was in daylight at epoch
Visualization orbit readout
Latitude
Unknown
Longitude
Unknown
Altitude
Unknown
Speed
Unknown
Apparent Right ascension
Unknown
Apparent Declination
Unknown
Sunlit
N/A
Visualization observer readout
Local Sidereal Time
16:32:29
Azimuth
Unknown
Elevation
Unknown
Doppler factor
Unknown
Orbital elements
Apogee altitude
341.367 km
Perigee altitude
337.018 km
Semi-major axis
6,717.329 km
Eccentricity
0.00032
Inclination
53.0168°
RAAN
314.6788°
Arg. of periapsis
302.7221°
True anomaly
196.7638°
Mean anomaly
196.7745°
Eccentric anomaly
196.76915°
Mean motion
3.94229 °/min
Orbital period
91.32 mins
BSTAR
0.00057212
Loading maneuver chart data...
Computing Atmospheric mass density...
Loading historical data...
Loading historical data...
Loading historical data...
Loading historical data...
Loading historical data...
Loading historical data...
Loading historical data...

Documentation

Showing up to 5 results
|